This demonstration page uses our WeatherBlox Daily Observations layout. Learn more.

Left ArrowRight Arrow

53.62937, 11.41316

Hourly Observations for April 13, 2015

Temp ( °F °C ) Dew Point ( °F °C ) Humidity (%) Winds ( mph kmh ) Pressure ( in mb ) Visibility ( mi km ) Precip ( " mm )
6:20 am 06:20 Mostly Cloudy 43 6 36 2 76 76 WNW 16 26 30.15 1021 30 48 N/A
6:50 am 06:50 Mostly Cloudy 43 6 36 2 76 76 W 16 26 30.18 1022 30 48 N/A
7:20 am 07:20 Partly Cloudy 43 6 36 2 76 76 W 13 20 30.18 1022 30 48 N/A
7:50 am 07:50 Mostly Cloudy 43 6 36 2 76 76 W 14 22 30.21 1023 30 48 N/A
8:20 am 08:20 Mostly Cloudy 43 6 36 2 76 76 W 16 26 30.21 1023 30 48 N/A
8:50 am 08:50 Mostly Cloudy 45 7 36 2 71 71 W 15 24 30.24 1024 30 48 N/A
9:07 am 09:07 Mostly Cloudy 45 7 34 1 66 66 W 17 28 30.24 1024 30 48 N/A
9:20 am 09:20 Mostly Cloudy 45 7 34 1 66 66 W 21 33 30.24 1024 30 48 N/A
9:50 am 09:50 Partly Cloudy 46 8 34 1 62 62 W 18 30 30.24 1024 30 48 N/A
9:54 am 09:54 Partly Cloudy 48 9 34 1 58 58 WNW 17 28 30.24 1024 30 48 N/A
10:20 am 10:20 Partly Cloudy 48 9 34 1 58 58 W 20 31 30.27 1025 30 48 N/A
10:50 am 10:50 Partly Cloudy 48 9 32 0 54 54 W 21 33 30.27 1025 30 48 N/A
11:20 am 11:20 Partly Cloudy 48 9 28 -2 46 46 WNW 21 33 30.27 1025 30 48 N/A
11:50 am 11:50 Partly Cloudy 50 10 30 -1 47 47 W 22 35 30.27 1025 30 48 N/A
12:20 pm 12:20 Mostly Sunny 50 10 30 -1 47 47 W 22 35 30.27 1025 7 11 N/A
12:34 pm 12:34 Partly Cloudy 50 10 30 -1 47 47 W 23 37 30.27 1025 30 48 N/A
12:50 pm 12:50 Mostly Sunny 52 11 30 -1 44 44 W 22 35 30.27 1025 7 11 N/A
1:20 pm 13:20 Mostly Cloudy with Light Rain 50 10 30 -1 47 47 W 23 37 30.30 1026 30 48 N/A
1:50 pm 13:50 Mostly Sunny 52 11 30 -1 44 44 W 17 28 30.30 1026 7 11 N/A
2:20 pm 14:20 Mostly Sunny 52 11 28 -2 41 41 W 22 35 30.30 1026 7 11 N/A
2:50 pm 14:50 Mostly Sunny 50 10 30 -1 47 47 WNW 20 31 30.30 1026 7 11 N/A
2:56 pm 14:56 Cloudy 52 11 32 0 47 47 W 22 35 30.30 1026 30 48 N/A
3:20 pm 15:20 Mostly Sunny 52 11 30 -1 44 44 W 22 35 30.30 1026 7 11 N/A
3:50 pm 15:50 Mostly Sunny 50 10 28 -2 43 43 WNW 22 35 30.30 1026 7 11 N/A
4:20 pm 16:20 Mostly Sunny 50 10 30 -1 47 47 WNW 17 28 30.30 1026 7 11 N/A
4:50 pm 16:50 Mostly Sunny 52 11 30 -1 44 44 WNW 18 30 30.30 1026 7 11 N/A
5:20 pm 17:20 Mostly Sunny 50 10 30 -1 47 47 WNW 17 28 30.30 1026 7 11 N/A
5:36 pm 17:36 Mostly Sunny 50 10 32 0 50 50 W 21 33 30.30 1026 7 11 N/A
5:50 pm 17:50 Mostly Sunny 50 10 32 0 50 50 WNW 17 28 30.30 1026 7 11 N/A
6:20 pm 18:20 Mostly Sunny 50 10 30 -1 47 47 WNW 21 33 30.30 1026 7 11 N/A
6:50 pm 18:50 Mostly Sunny 50 10 30 -1 47 47 W 18 30 30.30 1026 7 11 N/A

Powered by AerisWeather